sat.trackr.live / text

‹ back to catalog

CMS-01

NORAD 47256 · 2020-099A

PAYLOAD ACTIVE UNKNOWN

§ Identity

Operator
Country
IND
Launch date
2020-12-17
Launch site
SRILR
Launch vehicle
Mass (kg)
RCS (m²)

Purposes: comms

External: N2YO · Heavens-Above · Gunter

§ Orbital elements

Epoch: 2026-09-19T23:32:21.576192Z

Period
1,436.09 min
Inclination
0.0560°
Eccentricity
0.0004961
Mean motion
1.00272086 rev/d
Perigee alt
35,765.6 km
Apogee alt
35,807.4 km
Semi-major
42,164.6 km
B*
0.0000e+0
RAAN
92.1942°
Arg perigee
161.9699°
Mean anomaly
180.8174°
Rev number
2,114

§ Raw data

CMS-011 47256U 20099A   26262.98080528 -.00000169  00000+0  00000+0 0  99972 47256   0.0560  92.1942 0004961 161.9699 180.8174  1.00272086 21148

JSON: /api/v1/satellites/47256 · /tle

For live sub-satellite position, see the globe view (requires WebGL).

§ Visibility from observer

Set your observer location to see the next 7 days of passes ≥ 10°. The values pass through the URL so the page stays shareable.

No JS? Fill the form by hand. The geolocation button needs JavaScript.